User: anonymous   Login
Location: Unspecified
(0.0000°N, 0.0000°E)
Time: 07:27:28
(UTC+00:00)
Language:

BUGSAT 1 - Orbit

View from above orbital plane
View from above orbital plane
View from above satellite
View from above satellite

Ground track
Ground track

The orbit data is extracted from the following two-line orbital elements,

1 40014U 14033E   24104.84988147  .00006359  00000-0  47165-3 0  9999
2 40014  98.1334 143.2221 0035731 350.8798   9.1773 15.02951740535973
Epoch (UTC): 13 April 2024 20:23:49
Eccentricity: 0.0035731
inclination: 98.1334°
perigee height: 533 km
apogee height: 582 km
right ascension of ascending node: 143.2221°
argument of perigee: 350.8798°
revolutions per day: 15.02951740
mean anomaly at epoch: 9.1773°
orbit number at epoch: 53597

The dashed part of the orbit path shows where the satellite is in the earth's shadow,  

DLR